Flag for Canada Weather past 2 weeks in Saanich, British Columbia, Canada

Now
64 °F

Passing clouds.


Feels Like: 64 °F
Forecast: 55 / 69 °F
Wind: 8 mph from Southeast

Location: Victoria Int. Airportb. C.

Current Time: May 29, 2015 at 11:58:29 AM

Latest Report: May 29, 2015 at 11:00 AM


Visibility: 30 mi

Pressure: 29.97 "Hg

Humidity: 68%

Dew point: 54 °F

Location of SaanichLocation

Historic Weather in Saanich — Graph

°F

Saanich temperature yesterday

Maximum temperature yesterday: 72 °F (at 3:00 PM)
Minimum temperature yesterday: 50 °F (at 4:00 AM)
Average temperature yesterday: 61 °F

Past Weeks' High & Low Weather Summary

 TemperatureHumidityPressure
High72 °F (May 18, 2:00 PM)100% (May 15, 5:00 AM)30.17 "Hg (May 15, 5:00 AM)
Low48 °F (May 15, 12:00 AM)53% (May 18, 2:00 PM)29.80 "Hg (May 21, 5:00 PM)
Average58 °F79%29.99 "Hg
* Reported May 14 10:00 AM — May 29 10:00 AM, Saanich, Weather by CustomWeather, © 2015

Note: Actual official high and low records may vary slightly from our data, if they occured in-between our weather recording intervals... More about our weather records

Advertising

Saanich weather history for previous 24 hours

 ConditionsComfort  
Time TempWeatherWind HumidityBarometerVisibility
10:00 AM
Fri, May 29
66 °FScattered clouds.6 mph64%29.98 "Hg30 mi
9:00 AM63 °FBroken clouds.3 mph77%29.98 "Hg30 mi
8:00 AM59 °FPartly sunny.2 mph82%29.98 "Hg30 mi
7:00 AM55 °FPartly sunny.2 mph94%29.98 "Hg30 mi
6:00 AM54 °FPassing clouds.2 mph94%29.98 "Hg30 mi
5:00 AM52 °FPassing clouds.No wind94%29.98 "Hg30 mi
4:00 AM52 °FPassing clouds.No wind94%29.98 "Hg30 mi
3:00 AM52 °FPassing clouds.3 mph94%29.98 "Hg30 mi
2:00 AM54 °FPassing clouds.No wind94%29.98 "Hg30 mi
1:00 AM54 °FPassing clouds.3 mph94%29.97 "Hg30 mi
12:00 AM54 °FPassing clouds.No wind94%29.98 "Hg30 mi
11:00 PM
Thu, May 28
54 °FPassing clouds.3 mph94%29.98 "Hg30 mi
10:00 PM57 °FPartly sunny.2 mph82%29.98 "Hg30 mi
9:00 PM59 °FPartly sunny.5 mph77%29.97 "Hg30 mi
8:00 PM64 °FPartly sunny.7 mph68%29.97 "Hg30 mi
7:00 PM70 °FPartly sunny.6 mph60%29.98 "Hg30 mi
6:00 PM72 °FPartly sunny.7 mph57%29.99 "Hg30 mi
5:00 PM72 °FPartly sunny.8 mph57%30.00 "Hg30 mi
4:00 PM72 °FScattered clouds.8 mph53%30.01 "Hg30 mi
3:00 PM72 °FPassing clouds.8 mph57%30.03 "Hg30 mi
2:00 PM70 °FPassing clouds.7 mph60%30.05 "Hg30 mi
1:00 PM70 °FPassing clouds.5 mph64%30.06 "Hg30 mi
12:00 PM66 °FPassing clouds.7 mph68%30.07 "Hg30 mi
11:00 AM68 °FPassing clouds.6 mph64%30.07 "Hg30 mi
Weather by CustomWeather, © 2015

See weather overviewHow to use our weather pages